Weather Service Report


131 
ASUS44 KLIX 030011
RWRLIX
NEW ORLEANS REGIONAL WEATHER ROUNDUP
NATIONAL WEATHER SERVICE NEW ORLEANS LA
700 PM CDT THU JUL 02 2015

NOTE: "FAIR" INDICATES FEW OR NO CLOUDS BELOW 12,000 FEET WITH NO
      SIGNIFICANT WEATHER AND/OR OBSTRUCTIONS TO VISIBILITY.
      SKY/WX - SKY CONDITION AND SIGNIFICANT WEATHER.
      TMP - AIR TEMPERATURE.     DP    - DEWPOINT TEMPERATURE.
      RH  - RELATIVE HUMIDITY.   PRES  - PRESSURE.
      HI  - HEAT INDEX.          WCI   - WIND CHILL INDEX.

*  THESE STATIONS ARE NOT NWS OR FAA STATIONS AND ARE NOT UNDER
   NWS QUALITY CONTROL. 

LAZ038-040-048-061>063-065>067-069-030100-
SOUTHEAST LOUISIANA
  
CITY           SKY/WX    TMP DP  RH WIND       PRES   REMARKS
N.O. AUDUBON     N/A     87  76  70 MISG        N/A  HX  97           
6HR MIN TEMP:  87; 6HR MAX TEMP:  94;                                

N.O. INTL ARPT MOSUNNY   86  71  60 S8        30.02S                  
6HR MIN TEMP:  86; 6HR MAX TEMP:  91;                                

N.O. LAKEFRONT SUNNY     90  71  53 SW10      30.02S HX  96           
6HR MIN TEMP:  90; 6HR MAX TEMP:  95;                                

N.O. DOWNTOWN*   N/A     91  72  52 SW8       30.03S HX  98           
6HR MIN TEMP:  90; 6HR MAX TEMP:  93;                                

RESERVE*         N/A     87  73  63 SW8       30.02S                  
6HR MIN TEMP:  87; 6HR MAX TEMP:  92;                                

SLIDELL        MOSUNNY   88  72  58 SW7       30.01S                  
6HR MIN TEMP:  87; 6HR MAX TEMP:  91;                                

BATON ROUGE    CLOUDY    87  71  58 S8        30.00F                  
6HR MIN TEMP:  87; 6HR MAX TEMP:  91;                                

BOOTHVILLE     MOSUNNY   85  77  77 S10       30.04F HX  95           
6HR MIN TEMP:  85; 6HR MAX TEMP:  87;                                

BELLE CHASSE   PTSUNNY   85  73  67 SW9       30.02F                  
6HR MIN TEMP:  82; 6HR MAX TEMP:  89;                                

BOGALUSA*        N/A     88  75  65 SW5       30.03S HX  97           
6HR MIN TEMP:  88; 6HR MAX TEMP:  92;                                

GALLIANO*      PTCLDY    87  74  63 MISG      30.03F HX  95           
6HR MIN TEMP:  87; 6HR MAX TEMP:  91;                                

NEW ROADS*       N/A    N/A N/A N/A S7        30.01R                  
GONZALES*        N/A     83  74  73 SW6       30.01S                  
6HR MIN TEMP:  83; 6HR MAX TEMP:  91;                                

HAMMOND*       MOSUNNY   88  72  58 SW3       30.03S                  
HOUMA*         MOSUNNY   86  73  66 S8        30.01F                  
PORT FOURCHON* CLEAR     86  75  70 S9        30.04F HX  95           

$$

MSZ070-080>082-030100-
SOUTHERN MISSISSIPPI
  
CITY           SKY/WX    TMP DP  RH WIND       PRES   REMARKS
MCCOMB         PTSUNNY   85  76  74 SW6       30.01F                  
6HR MIN TEMP:  85; 6HR MAX TEMP:  89;                                

GULFPORT       MOSUNNY   85  77  77 S7        30.02F HX  95           
6HR MIN TEMP:  85; 6HR MAX TEMP:  88;                                

BILOXI         MOSUNNY   84  78  84 SW10      30.02F HX  95           
6HR MIN TEMP:  84; 6HR MAX TEMP:  88;                                

PASCAGOULA     MOSUNNY   84  76  76 SW8       30.03F                  
6HR MIN TEMP:  84; 6HR MAX TEMP:  88;                                

STENNIS ARPT*  SUNNY     84  72  65 MISG      30.02F                  

$$

COASTAL OBSERVATIONS
LAKE AND NEARSHORE STATIONS
  
STATION/POSITION TIME  TEMP    WIND        PRES    WAVE
                       AIR SEA DIR/SP/G            HT/PER
                 (UTC) (F)     (DEG/KT/KT) (MB)    (FT/S)
PASCAGOULA       2300   85     220/ 13/ 14 1016.9
WAVELAND YACHT   2300   86 85  230/  4/ 10 1017.2
GRAND ISLE       2300   86 86  200/  5/  9 1017.6
SOUTHWEST PASS   2300   85 83  190/  7/  9 1018.0
NEW CANAL        2300   88 85  210/  8/ 12 1016.0
SHELL BEACH      2300   86 84  200/ 12/ 14 1016.5

OFFSHORE STATIONS
  
STATION/POSITION TIME  TEMP    WIND        PRES    WAVE
                       AIR SEA DIR/SP/G            HT/PER
                 (UTC) (F)     (DEG/KT/KT) (MB)    (FT/S)
64 S DAUPHIN ISL 2350   84 85  190/  6/  6 1017.9    1/ 5

$$



132 
ASUS44 KLIX 030011
RWRLA 
LOUISIANA WEATHER ROUNDUP
NATIONAL WEATHER SERVICE NEW ORLEANS LA
700 PM CDT THU JUL 02 2015

NOTE: "FAIR" INDICATES FEW OR NO CLOUDS BELOW 12,000 FEET WITH NO
      SIGNIFICANT WEATHER AND/OR OBSTRUCTIONS TO VISIBILITY.
      SKY/WX - SKY CONDITION AND SIGNIFICANT WEATHER.
      TMP - AIR TEMPERATURE.    DP   - DEWPOINT TEMPERATURE.
      RH  - RELATIVE HUMIDITY.  PRES - PRESSURE.
      HX  - HEAT INDEX.         WCI  - WIND CHILL INDEX.

*  THESE STATIONS ARE NOT NWS OR FAA STATIONS AND ARE NOT UNDER
   NWS QUALITY CONTROL.

LAZ040-048-061>063-065-066-069-030100-
SOUTHEAST LOUISIANA
  
CITY           SKY/WX    TMP DP  RH WIND       PRES   REMARKS
N.O. AUDUBON     N/A     87  76  70 MISG        N/A  HX  97           
6HR MIN TEMP:  87; 6HR MAX TEMP:  94;                                

N.O. INTL ARPT MOSUNNY   86  71  60 S8        30.02S                  
6HR MIN TEMP:  86; 6HR MAX TEMP:  91;                                

N.O. LAKEFRONT SUNNY     90  71  53 SW10      30.02S HX  96           
6HR MIN TEMP:  90; 6HR MAX TEMP:  95;                                

N.O. DOWNTOWN* FAIR      91  72  52 SW8       30.03S HX  98           
6HR MIN TEMP:  90; 6HR MAX TEMP:  93;                                

RESERVE*       FAIR      87  73  63 SW8       30.02S                  
6HR MIN TEMP:  87; 6HR MAX TEMP:  92;                                

SLIDELL        MOSUNNY   88  72  58 SW7       30.01S                  
6HR MIN TEMP:  87; 6HR MAX TEMP:  91;                                

BATON ROUGE    CLOUDY    87  71  58 S8        30.00F                  
6HR MIN TEMP:  87; 6HR MAX TEMP:  91;                                

BOOTHVILLE     MOSUNNY   85  77  77 S10       30.04F HX  95           
6HR MIN TEMP:  85; 6HR MAX TEMP:  87;                                

BELLE CHASSE   PTSUNNY   85  73  67 SW9       30.02F                  
6HR MIN TEMP:  82; 6HR MAX TEMP:  89;                                

BOGALUSA*        N/A     88  75  65 SW5       30.03S HX  97           
6HR MIN TEMP:  88; 6HR MAX TEMP:  92;                                

GALLIANO*      PTCLDY    87  74  63 MISG      30.03F HX  95           
6HR MIN TEMP:  87; 6HR MAX TEMP:  91;                                

NEW ROADS*     FAIR     N/A N/A N/A S7        30.01R                  
GONZALES*      FAIR      83  74  73 SW6       30.01S                  
6HR MIN TEMP:  83; 6HR MAX TEMP:  91;                                

HAMMOND*       MOSUNNY   88  72  58 SW3       30.03S                  
HOUMA*         MOSUNNY   86  73  66 S8        30.01F                  
PORT FOURCHON* CLEAR     86  75  70 S9        30.04F HX  95           

$$

LAZ041-044-053-054-030100-
SOUTHWEST LOUISIANA
  
CITY           SKY/WX    TMP DP  RH WIND       PRES   REMARKS
LAKE CHARLES   PTSUNNY   84  75  74 S6        30.00F                  
6HR MIN TEMP:  84; 6HR MAX TEMP:  89;                                

LAFAYETTE      MOSUNNY   86  72  62 S10       30.01S                  
6HR MIN TEMP:  86; 6HR MAX TEMP:  91;                                

PATTERSON      PTSUNNY   82  75  78 S3        30.04S                  
6HR MIN TEMP:  82; 6HR MAX TEMP:  90;                                

SALT POINT       N/A     85  75  72 VRB3      30.01S                  
6HR MIN TEMP:  85; 6HR MAX TEMP:  89;                                

NEW IBERIA     NOT AVBL                                               
CHENAULT AIRPK SUNNY     84  73  70 SW9       30.01F                  

$$

LAZ027-028-030100-
CENTRAL LOUISIANA
  
CITY           SKY/WX    TMP DP  RH WIND       PRES   REMARKS
FORT POLK      MOSUNNY   86  72  62 S9        29.98F                  
6HR MIN TEMP:  86; 6HR MAX TEMP:  91;                                

ALEXANDRIA INT PTSUNNY   86  72  62 S13       29.97F                  
6HR MIN TEMP:  86; 6HR MAX TEMP:  88;                                

ALEXANDRIA     PTSUNNY   89  73  59 SW8       29.99F HX  97           
6HR MIN TEMP:  89; 6HR MAX TEMP:  93;                                


$$

LAZ001-002-030100-
NORTHWEST LOUISIANA
  
CITY           SKY/WX    TMP DP  RH WIND       PRES   REMARKS
SHREVEPORT     CLOUDY    87  72  60 SW5       29.93F                  
6HR MIN TEMP:  87; 6HR MAX TEMP:  91;                                

BARKSDALE AFB  PTSUNNY   88  72  59 SW9       29.92F                  
6HR MIN TEMP:  87; 6HR MAX TEMP:  91;                                

DTN SHREVEPORT PTSUNNY   87  69  54 SW13      29.92F                  
6HR MIN TEMP:  87; 6HR MAX TEMP:  91;                                


$$

LAZ014-016-030100-
NORTHEAST LOUISIANA
  
CITY           SKY/WX    TMP DP  RH WIND       PRES   REMARKS
MONROE         PTSUNNY   86  74  67 S10       29.94F                  
6HR MIN TEMP:  86; 6HR MAX TEMP:  90;                                

TALLULAH       PTSUNNY   85  74  69 VRB7      29.95F                  
6HR MIN TEMP:  85; 6HR MAX TEMP:  90;                                


$$


Return to Home page


Western Regional Climate Center, wrcc@dri.edu